Location: Beekmeers
(50.8953°N, 3.6968°E)
Time: 12:15:01
(UTC+00:00)

Cosmos 1953 - Pass Details

Date: 23 May 2024
Orbit: 510 x 531 km, 82.5° (Epoch: 14 June)

Event Time Altitude Azimuth Distance (km) Brightness Sun altitude
Rises 00:57:17 0° 350° (N) 2,688 7.0 -16.6°
Reaches altitude 10° 00:59:27 10° 352° (N) 1,790 5.9 -16.5°
Maximum altitude 01:03:23 80° 80° (E) 543 2.2 -16.2°
Enters shadow 01:05:26 27° 164° (SSE) 1,036 3.3 -16.1°
